Погода в Карпиловке

Украина / Ровненская область     51°09′21″N   27°12′05″E
темп.,
°C
ветер,
м/с
пор.,
м/с
влажн.,
%
обл.,
%
осадки,
мм/ч
давл.,
гПа
погр.,
м
13 мая, чт
чт1300:00+8юв348517 0.0 101266
03:00+6ю3391100 0.0 101058
06:00+6ююв359053 0.0 1008101
09:00+11ююв476651 0.0 1007634
12:00+16ююв674719 0.0 10061797
15:00+13ююв6868100 0.1 10051070
18:00+12ююв61074100 0.0 1005853
21:00+12юв5138396 0.2 1004578
14 мая, пт
пт1400:00+13ююв61284100 0.0 1005657
03:00+10ююв51191100 0.9 1005454
06:00+9ююв4109562 0.1 1005353
09:00+11ююв4788100 0.1 1005429
12:00+18ю346298 0.0 10051007
15:00+19ю345594 0.9 10041556
18:00+16ююз247753 2.2 1004139
21:00+13зюз359166 3.8 100593
15 мая, сб
сб1500:00+10зюз389693 0.0 1006205
03:00+8юз379892 0.0 1007170
06:00+9ююз2698100 0.0 1007171
09:00+11юз3596100 0.1 1009323
12:00+13з3586100 0.1 1010521
15:00+17юз346981 0.2 10101122
18:00+16зюз367774 1.8 1010608
21:00+12зюз22865 2.0 101112
16 мая, вс
вс1600:00+9юз22907 0.0 101222
03:00+9ююз229177 0.0 101221
06:00+9юв228996 0.0 101219
09:00+14юв357246 0.0 1012344
12:00+20ююв454880 0.0 10121196
15:00+22ююв5649100 0.0 10102082
18:00+19юв4766100 0.3 1009947
21:00+15юв3987100 0.7 1009178
17 мая, пн
пн1700:00+13юв4129297 0.3 1008273
03:00+13ююв3893100 1.7 1008239
06:00+12юз129894 1.3 100877
09:00+14з2391100 1.5 1009438
12:00+14сз3487100 0.1 1009450
15:00+16ссз247154 0.1 1009726
18:00+19сз335997 0.0 10081214
21:00+14сз128094 0.3 100811